Location: *
(51.4660°N, 0.3360°W)
Time: 14:22:19
(UTC+00:00)

Meteor 1-4 Rocket - Pass Details

Date: 19 September 2019
Orbit: 449 x 504 km, 81.2° (Epoch: 18 October)

Event Time Altitude Azimuth Distance (km) Brightness Sun altitude
Rises 19:20:55 0° 350° (N) 2,534 6.6 -12.1°
Reaches altitude 10° 19:23:04 10° 355° (N) 1,641 5.5 -12.4°
Maximum altitude 19:26:36 54° 74° (ENE) 569 2.6 -12.9°
Enters shadow 19:29:10 17° 149° (SSE) 1,254 4.2 -13.3°
